Overview Statistics Trail Chart Weather Telemetry Raw packets
 

This is the latest recevied weather packets stored in our database for station/object WW5JC. If no packets are shown the sender has not sent any weather packets the latest 10 day(s).

<< 11 12 13 14 15 16 17 >>
Time Temp. Humidity Pressure Rain* Wind** Luminosity Snow
1788552135 36.11° C 46% 1015.2 hPa 0 mm - 596 W/m² -
1788551834 36.11° C 48% 1015.3 hPa 0 mm - 614 W/m² -
1788551533 35.56° C 48% 1015.3 hPa 0 mm - 615 W/m² -
1788551228 35.56° C 49% 1015.3 hPa 0 mm - 633 W/m² -
1788550922 35° C 48% 1015.5 hPa 0 mm - 654 W/m² -
1788550617 34.44° C 52% 1015.5 hPa 0 mm - 138 W/m² -
1788550314 35.56° C 49% 1015.7 hPa 0 mm - 176 W/m² -
1788550013 36.11° C 48% 1015.7 hPa 0 mm - 683 W/m² -
1788549708 35.56° C 49% 1015.6 hPa 0 mm - 687 W/m² -
1788549405 35° C 49% 1015.6 hPa 0 mm - 729 W/m² -
1788549096 34.44° C 51% 1015.6 hPa 0 mm - 153 W/m² -
1788548792 35° C 50% 1015.8 hPa 0 mm - 172 W/m² -
1788548487 35° C 51% 1015.9 hPa 0 mm - 678 W/m² -
1788548184 35° C 50% 1015.8 hPa 0 mm - 684 W/m² -
1788547907 33.89° C 52% 1016 hPa 0 mm - 736 W/m² -
1788547582 33.89° C 54% 1016.2 hPa 0 mm - 117 W/m² -
1788547278 33.89° C 53% 1016.2 hPa 0 mm - 139 W/m² -
1788546974 35° C 51% 1016.2 hPa 0 mm - 633 W/m² -
1788546669 35° C 52% 1016.4 hPa 0 mm - 691 W/m² -
1788546364 34.44° C 52% 1016.3 hPa 0 mm - 691 W/m² -
1788546064 35° C 51% 1016.4 hPa 0 mm - 695 W/m² -
1788545761 34.44° C 51% 1016.6 hPa 0 mm - 695 W/m² -
1788545460 35° C 52% 1016.5 hPa 0 mm - 707 W/m² -
1788545155 34.44° C 53% 1016.7 hPa 0 mm - 720 W/m² -
1788544850 34.44° C 52% 1016.6 hPa 0 mm - 694 W/m² -

* Rain latest hour (hover to see other rain measurements)
** Current wind speed in m/s (hover to see current wind gust speed)